Tracking 32412 objects as of 6-Dec-2025
HD Live streaming from Space Station
objects crossing your sky now

STARLINK-1759

Track STARLINK-1759 now!
10-day predictions
STARLINK-1759 is classified as:


NORAD ID: 46340
Int'l Code: 2020-062R
Perigee: 467.1 km
Apogee: 469.6 km
Inclination: 53.0 °
Period: 93.8 minutes
Semi major axis: 6839 km
RCS: Unknown
Launch date: September 3, 2020
Source: United States (US)
Launch site: AIR FORCE EASTERN TEST RANGE (AFETR)
Your satellite tracking list
Your tracking list is empty




NASA's NSSDC Master Catalog

Two Line Element Set (TLE):
1 46340U 20062R   25339.92333370  .00031582  00000-0  92671-3 0  9996
2 46340  53.0328  59.3233 0001847 230.2335 129.8504 15.34910050290427
Source of the keplerian elements: AFSPC